This demonstration page uses our WeatherBlox Daily Observations layout. Learn more.

Left ArrowRight Arrow

44.8408, -93.29828

Hourly Observations for July 28, 2017

Temp ( °F °C ) Dew Point ( °F °C ) Humidity (%) Winds ( mph kmh ) Pressure ( in mb ) Visibility ( mi km ) Precip ( " mm )
12:53 am 00:53 Mostly Clear 71 21.7 60 15.6 68 68 NE 5 7 30.02 1017 10 16 0.00 0.00
1:53 am 01:53 Mostly Clear 70 21.1 62 16.7 76 76 Calm 30.03 1017 10 16 0.00 0.00
2:53 am 02:53 Mostly Clear 69 20.6 60 15.6 73 73 Calm 30.04 1017 10 16 0.00 0.00
3:53 am 03:53 Mostly Clear 68 20 60 15.6 76 76 Calm 30.05 1018 10 16 0.00 0.00
4:53 am 04:53 Mostly Clear 66 18.9 60 15.6 81 81 NNE 3 6 30.06 1018 10 16 0.00 0.00
5:53 am 05:53 Mostly Clear 66 18.9 59 15 78 78 N 3 6 30.06 1018 10 16 0.00 0.00
6:53 am 06:53 Sunny 67 19.4 59 15 76 76 VRB 6 9 30.07 1018 10 16 0.00 0.00
7:53 am 07:53 Sunny 70 21.1 60 15.6 71 71 VRB 5 7 30.08 1019 10 16 0.00 0.00
8:53 am 08:53 Partly Cloudy 73 22.8 61 16.1 66 66 ENE 5 7 30.09 1019 10 16 0.00 0.00
9:53 am 09:53 Partly Cloudy 76 24.4 63 17.2 64 64 VRB 5 7 30.09 1019 10 16 0.00 0.00
10:53 am 10:53 Partly Cloudy 80 26.7 62 16.7 54 54 VRB 5 7 30.08 1019 10 16 0.00 0.00
11:53 am 11:53 Partly Cloudy 80 26.7 59 15 49 49 ENE 8 13 30.08 1019 10 16 0.00 0.00
12:53 pm 12:53 Partly Cloudy 82 27.8 60 15.6 47 47 ENE 8 13 30.07 1018 10 16 0.00 0.00
1:53 pm 13:53 Partly Cloudy 82 27.8 57 13.9 42 42 ESE 9 15 30.07 1018 10 16 0.00 0.00
2:53 pm 14:53 Partly Cloudy 82 27.8 57 13.9 42 42 E 7 11 30.07 1018 10 16 0.00 0.00
3:53 pm 15:53 Partly Cloudy 83 28.3 57 13.9 41 41 VRB 6 9 30.06 1018 10 16 0.00 0.00
4:53 pm 16:53 Mostly Cloudy 82 27.8 58 14.4 44 44 E 7 11 30.06 1018 10 16 0.00 0.00
5:53 pm 17:53 Partly Cloudy 81 27.2 58 14.4 45 45 VRB 7 11 30.05 1018 10 16 0.00 0.00
6:53 pm 18:53 Mostly Sunny 81 27.2 57 13.9 44 44 SE 8 13 30.05 1018 10 16 0.00 0.00
7:53 pm 19:53 Mostly Sunny 80 26.7 54 12.2 41 41 ESE 8 13 30.05 1018 10 16 0.00 0.00
8:53 pm 20:53 Clear 77 25 57 13.9 50 50 SE 7 11 30.05 1018 10 16 0.00 0.00
9:53 pm 21:53 Clear 74 23.3 57 13.9 56 56 SSE 7 11 30.06 1018 10 16 0.00 0.00
10:53 pm 22:53 Clear 74 23.3 57 13.9 56 56 SE 3 6 30.06 1018 10 16 0.00 0.00
11:53 pm 23:53 Clear 71 21.7 56 13.3 59 59 SSE 7 11 30.08 1019 10 16 0.00 0.00

Powered by AerisWeather